[[{"header":{"parameterUnit":"m.s-1","parameterCategory":2,"la1":30.2991,"la2":30.254,"lo1":-89.0895,"lo2":-89.0444,"dy":0.0017,"dx":0.0017,"nx":28,"ny":28,"refTime":"2025-07-22T21:00:00:Z","depth":"0","parameterNumber":2,"parameterNumberName":"U-component_of_CURRENTS"},"data":[0,0,0,0,0,0,0,0,0,0,0,0,0,0,0,0,0,0,0,0,0,0,0,0,0,0,0,0,0,0,0,0,0,0,0,0,0,0,0,0,0,0,0,0,0,0,0,0,0,0,0,0,0,0,0,0,0,0,0.2066,0.2066,0,0.2095,0.2096,0.2096,0.2085,0.2084,0.2083,0.2082,0.2114,0.2116,0.2117,0,0,0,0,0,0,0,0,0,0,0,0,0,0.2049,0.2049,0.2066,0.2066,0.2067,0.2095,0.2096,0.2096,0.2085,0.2084,0.2083,0.2082,0.2113,0.2115,0.2117,0,0,0,0,0,0,0,0,0,0,0,0,0,0.2067,0.2049,0.2066,0.2063,0.2063,0.2095,0.2096,0.2096,0.2085,0.2084,0.2083,0.2082,0.2113,0.2115,0.2118,0.2157,0,0,0.2125,0.2126,0,0,0,0,0,0,0,0,0.2065,0.2067,0.2064,0.2064,0.2063,0.2084,0.2101,0.2116,0.2086,0.2079,0.2082,0.2081,0.2104,0.2107,0.2118,0.2159,0.216,0.2125,0.2127,0.2128,0.2128,0,0,0,0,0,0,0,0.2064,0.2066,0.2079,0.2064,0.2064,0.2077,0.2078,0.2104,0.2099,0.2079,0.2078,0.2079,0.2104,0.2115,0.2118,0.216,0.2125,0.2127,0.2129,0.213,0.2283,0.2286,0,0,0,0,0,0,0.2056,0.2065,0.2078,0.208,0.206,0.2078,0.2079,0.208,0.2099,0.21,0.208,0.2078,0.2112,0.2115,0.2119,0.2211,0.2128,0.213,0.2131,0.2281,0.2284,0.2287,0,0,0,0,0,0,0.2056,0.2057,0.2077,0.2072,0.2075,0.2079,0.208,0.2081,0.2089,0.2099,0.21,0.2086,0.2111,0.2116,0.2154,0.221,0.2131,0.2133,0.2278,0.2282,0.2285,0.2367,0,0,0,0,0,0,0.2055,0.2057,0.2059,0.2071,0.2075,0.2098,0.2081,0.2082,0.209,0.2089,0.2105,0.2107,0.211,0.2151,0.2157,0.2212,0.2135,0.2274,0.228,0.2284,0.2361,0.2373,0.2383,0,0,0,0,0,0.2055,0.2067,0.2059,0.2061,0.2076,0.2099,0.2103,0.2102,0.2092,0.2103,0.212,0.2106,0.2187,0.2155,0.2161,0.2218,0.2272,0.2278,0.2284,0.2356,0.237,0.2383,0,0,0,0,0,0,0.2069,0.2068,0.2059,0.2072,0.2082,0.2096,0.2108,0.2106,0.2129,0.2129,0.2132,0.2137,0.22,0.2196,0.216,0.2279,0.2231,0.2238,0.2284,0.2298,0.2309,0.2304,0.2137,0,0,0,0,0,0.207,0.2074,0.2079,0.2089,0.2094,0.21,0.211,0.2112,0.213,0.2138,0.215,0.2179,0.2233,0.2249,0.2285,0.234,0.2308,0.2385,0.2396,0.2406,0.2408,0.2448,0.2463,0.2306,0.2306,0.2306,0,0,0.2076,0.2079,0.2079,0.2092,0.2099,0.212,0.2104,0.2123,0.2156,0.214,0.2188,0.2218,0.2257,0.2329,0.2357,0.2328,0.2421,0.2413,0.2421,0.2418,0.2456,0.2471,0.2484,0.231,0.231,0.2309,0,0,0.209,0.2094,0.2097,0.211,0.2123,0.2139,0.2144,0.2162,0.2183,0.2233,0.2248,0.2306,0.2358,0.2409,0.2442,0.2536,0.2485,0.2552,0.2602,0.2641,0.2654,0.2665,0.258,0.2583,0.2553,0.2553,0.2553,0,0.2094,0.2099,0.2105,0.2118,0.2134,0.2147,0.2167,0.2205,0.2237,0.2269,0.2256,0.2378,0.2406,0.2517,0.2557,0.2564,0.2531,0.2545,0.2655,0.2665,0.2675,0.2586,0.2589,0.2557,0.2557,0.2556,0.2556,0,0.2109,0.2116,0.2126,0.2145,0.2172,0.2193,0.2239,0.2277,0.2305,0.234,0.2441,0.2491,0.2555,0.2595,0.2607,0.2712,0.2642,0.2666,0.2613,0.2695,0.2596,0.2597,0.2564,0.2562,0.2561,0.256,0,0,0.2102,0.2126,0.2127,0.2138,0.2186,0.2211,0.2285,0.2352,0.2411,0.2463,0.2542,0.2653,0.2668,0.2706,0.274,0.2786,0.2814,0.2757,0.2757,0.2658,0.2808,0.2596,0.2574,0.2862,0.2865,0.2867,0.2686,0,0.2104,0.2122,0.2147,0.2187,0.2202,0.2254,0.2328,0.2402,0.247,0.2554,0.2634,0.2711,0.2717,0.2751,0.281,0.2834,0.2831,0.2854,0.2756,0.275,0.2544,0.2576,0.2469,0.2288,0.2686,0.2686,0.2686,0,0.2103,0.2117,0.2142,0.2205,0.2221,0.226,0.2375,0.244,0.2572,0.2622,0.2711,0.2762,0.2847,0.2842,0.288,0.2892,0.2848,0.2844,0.2838,0.2616,0.2543,0.2286,0.2273,0.2226,0.2686,0.2686,0.2686,0,0.2083,0.2119,0.2138,0.2155,0.2233,0.2272,0.2326,0.2453,0.2518,0.2646,0.2687,0.2805,0.2819,0.2862,0.2817,0.2862,0.2813,0.287,0.2613,0.2592,0.2467,0.2432,0.2391,0.2872,0.2872,0.2872,0.2873,0,0.2074,0.209,0.2123,0.2134,0.2189,0.2252,0.2338,0.2413,0.2528,0.2596,0.2699,0.2738,0.2831,0.2812,0.2812,0.2663,0.2783,0.26,0.2552,0.2481,0.2451,0.2376,0.2383,0.2866,0.2867,0.2868,0.287,0,0.2049,0.2066,0.2091,0.2153,0.2173,0.2212,0.2304,0.2373,0.2462,0.2548,0.2572,0.266,0.2614,0.2628,0.2632,0.2572,0.2418,0.2415,0.2247,0.2183,0.1923,0.1936,0.1741,0.1706,0.2134,0.2128,0.2123,0,0.204,0.2045,0.2086,0.2105,0.2126,0.2182,0.2232,0.2328,0.2385,0.2481,0.2507,0.248,0.2455,0.2317,0.2226,0.2102,0.2133,0.1889,0.1984,0.1863,0.1849,0.1838,0.1829,0.1824,0.1817,0.1811,0.1807,0,0.2033,0.2041,0.2059,0.2081,0.2114,0.2154,0.221,0.2234,0.2337,0.2366,0.2354,0.2333,0.2178,0.2,0.1798,0.1738,0.18,0.1758,0.1746,0.1673,0.1556,0.1513,0.1906,0.1755,0.176,0.1764,0.1767,0.1769,0.2031,0.203,0.2044,0.2062,0.2091,0.2103,0.2096,0.2131,0.2147,0.2133,0.2179,0.2046,0.1867,0.1584,0.149,0.124,0.1364,0.122,0.1255,0.126,0.1214,0.1401,0.1138,0.114,0.1141,0.1142,0.1144,0,0.2013,0.2009,0.2029,0.2023,0.201,0.2047,0.2066,0.2019,0.1951,0.1916,0.1857,0.1601,0.1376,0.1209,0.0929,0.0805,0.0843,0.0767,0.0827,0.0858,0.1115,0.1093,0.0675,0.0675,0.0675,0.0675,0.0675,0.0675,0.2005,0.1991,0.198,0.1933,0.1921,0.1858,0.1834,0.1763,0.1702,0.1485,0.1297,0.1227,0.1062,0.0801,0.0576,0.0539,0.0562,0.0439,0.0519,0.0798,0.0848,0.0896,0.088,0.0423,0.0423,0.0254,0.0252,0.0251]},{"header":{"parameterUnit":"m.s-1","parameterCategory":2,"la1":30.2991,"la2":30.254,"lo1":-89.0895,"lo2":-89.0444,"dy":0.0017,"dx":0.0017,"nx":28,"ny":28,"refTime":"2025-07-22T21:00:00:Z","depth":"0","parameterNumber":3,"parameterNumberName":"V-component_of_CURRENTS"},"data":[0,0,0,0,0,0,0,0,0,0,0,0,0,0,0,0,0,0,0,0,0,0,0,0,0,0,0,0,0,0,0,0,0,0,0,0,0,0,0,0,0,0,0,0,0,0,0,0,0,0,0,0,0,0,0,0,0,0,0.0162,0.0163,0,0.0186,0.0186,0.0186,0.0184,0.0183,0.0183,0.0183,0.0193,0.0194,0.0195,0,0,0,0,0,0,0,0,0,0,0,0,0,0.0124,0.0124,0.0162,0.0163,0.0163,0.0186,0.0186,0.0186,0.0184,0.0183,0.0183,0.0183,0.0193,0.0194,0.0195,0,0,0,0,0,0,0,0,0,0,0,0,0,0.0142,0.0125,0.0162,0.0165,0.0166,0.0186,0.0186,0.0186,0.0184,0.0183,0.0183,0.0183,0.0193,0.0194,0.0195,0.0209,0,0,0.0197,0.0198,0,0,0,0,0,0,0,0,0.0141,0.0144,0.0164,0.0165,0.0166,0.0182,0.0176,0.0193,0.0184,0.0176,0.0183,0.0182,0.0189,0.019,0.0195,0.0209,0.021,0.0197,0.0198,0.0198,0.0198,0,0,0,0,0,0,0,0.014,0.0143,0.0171,0.0165,0.0166,0.0168,0.017,0.0179,0.0184,0.0177,0.0177,0.0181,0.0189,0.0194,0.0195,0.021,0.0197,0.0198,0.0198,0.0199,0.025,0.0251,0,0,0,0,0,0,0.0139,0.0142,0.017,0.0172,0.0153,0.0169,0.0171,0.0177,0.0184,0.0185,0.0181,0.0181,0.0193,0.0194,0.0195,0.0221,0.0198,0.0199,0.0199,0.0249,0.025,0.0251,0,0,0,0,0,0,0.0138,0.0141,0.0169,0.0158,0.0161,0.017,0.0176,0.0177,0.0183,0.0188,0.0188,0.0186,0.0193,0.0194,0.0206,0.0221,0.0199,0.02,0.0248,0.025,0.0251,0.0266,0,0,0,0,0,0,0.0137,0.0141,0.0145,0.0158,0.0162,0.0185,0.0177,0.0178,0.0186,0.0186,0.0192,0.0193,0.0192,0.0205,0.0207,0.0222,0.0201,0.0247,0.0249,0.025,0.0265,0.0268,0.0271,0,0,0,0,0,0.0135,0.0147,0.0145,0.0149,0.0167,0.0186,0.0188,0.0192,0.0187,0.0195,0.0196,0.0192,0.0217,0.0206,0.0208,0.0224,0.0246,0.0248,0.025,0.0264,0.0268,0.0271,0,0,0,0,0,0,0.0133,0.0148,0.0147,0.0162,0.0173,0.0186,0.0195,0.0195,0.0203,0.0201,0.02,0.0202,0.0218,0.0221,0.0209,0.0245,0.0232,0.0235,0.0242,0.0246,0.0249,0.0276,0.0201,0,0,0,0,0,0.0134,0.0146,0.0158,0.017,0.0177,0.0185,0.0193,0.0195,0.0204,0.0206,0.021,0.0218,0.0229,0.0236,0.0244,0.0263,0.0284,0.0277,0.028,0.0282,0.0307,0.0383,0.0395,0.0258,0.0258,0.0258,0,0,0.0136,0.0146,0.0152,0.0171,0.0179,0.0195,0.0189,0.0203,0.0214,0.0207,0.0223,0.0226,0.0235,0.0255,0.0263,0.0259,0.0319,0.0285,0.0287,0.031,0.0386,0.04,0.0412,0.0259,0.0259,0.0258,0,0,0.0149,0.0156,0.017,0.0182,0.0197,0.0204,0.0209,0.0222,0.0226,0.0241,0.024,0.0261,0.0268,0.0289,0.0297,0.0327,0.0331,0.0319,0.0359,0.0432,0.0444,0.0456,0.0441,0.0452,0.0323,0.0323,0.0323,0,0.0149,0.017,0.0177,0.0195,0.0207,0.0209,0.0227,0.0235,0.0249,0.0265,0.0248,0.0298,0.0293,0.0344,0.0344,0.0336,0.035,0.034,0.0438,0.045,0.0461,0.0445,0.0456,0.0324,0.0324,0.0324,0.0324,0,0.0174,0.019,0.0202,0.0223,0.0237,0.0254,0.0264,0.0277,0.0279,0.0295,0.034,0.0349,0.0387,0.038,0.0364,0.0442,0.0411,0.0429,0.043,0.0477,0.0454,0.0466,0.0326,0.0325,0.0325,0.0325,0,0,0.0173,0.0211,0.0215,0.0233,0.0253,0.027,0.029,0.0322,0.0358,0.037,0.0435,0.044,0.0459,0.0472,0.047,0.0523,0.0576,0.0507,0.051,0.0493,0.0681,0.062,0.0626,0.0619,0.0622,0.0625,0.061,0,0.019,0.0229,0.0242,0.0279,0.0301,0.0312,0.0338,0.0367,0.0393,0.0456,0.0486,0.054,0.049,0.052,0.0565,0.0593,0.0617,0.0575,0.0639,0.0639,0.0583,0.0643,0.0636,0.0622,0.0621,0.0623,0.0625,0,0.0208,0.0235,0.0273,0.032,0.0331,0.0352,0.041,0.0435,0.0511,0.0538,0.0602,0.0633,0.0699,0.0667,0.0732,0.0708,0.0693,0.0701,0.0702,0.0661,0.0604,0.0588,0.0643,0.065,0.0642,0.0641,0.064,0,0.0212,0.0257,0.029,0.0305,0.0355,0.0377,0.0403,0.0464,0.0512,0.0608,0.0673,0.0742,0.08,0.0827,0.0803,0.0787,0.0875,0.0857,0.0776,0.0767,0.0784,0.0772,0.0866,0.0915,0.0915,0.0915,0.0915,0,0.0228,0.0256,0.0297,0.0319,0.0374,0.0395,0.0468,0.0503,0.0595,0.0685,0.0724,0.0813,0.0855,0.0896,0.0859,0.0843,0.0912,0.08,0.0789,0.0779,0.0767,0.0792,0.0789,0.0915,0.0915,0.0915,0.0915,0,0.0235,0.0258,0.0305,0.0359,0.038,0.0419,0.0505,0.057,0.0634,0.0764,0.0804,0.0894,0.0935,0.0929,0.0969,0.0911,0.0902,0.0871,0.0804,0.0787,0.0711,0.0708,0.0769,0.08,0.0795,0.0793,0.0793,0,0.0246,0.0269,0.0334,0.0373,0.04,0.0463,0.052,0.0587,0.0666,0.0809,0.0885,0.0958,0.1013,0.1009,0.0939,0.0867,0.0868,0.0797,0.0779,0.0728,0.0718,0.0703,0.0726,0.0774,0.0773,0.0772,0.0771,0,0.0274,0.0293,0.0336,0.0409,0.0468,0.0544,0.0626,0.0696,0.0796,0.0889,0.1009,0.1062,0.1048,0.1,0.0889,0.0832,0.0813,0.0775,0.0793,0.0776,0.0705,0.0722,0.0693,0.0764,0.0764,0.0765,0.0765,0.0766,0.0299,0.0332,0.0386,0.0456,0.0528,0.0621,0.0686,0.0781,0.0894,0.1041,0.1078,0.1141,0.1064,0.0918,0.0855,0.073,0.0744,0.0696,0.0705,0.0701,0.0728,0.063,0.0651,0.0651,0.0651,0.0651,0.0651,0,0.0332,0.0369,0.0434,0.0519,0.0595,0.0628,0.0759,0.0828,0.0948,0.1065,0.1147,0.1115,0.102,0.091,0.0737,0.0684,0.0691,0.0667,0.0687,0.0725,0.0707,0.0703,0.0654,0.0654,0.0654,0.0654,0.0654,0.0654,0.0354,0.041,0.0437,0.0557,0.0619,0.0717,0.0788,0.0897,0.0987,0.1097,0.1117,0.1138,0.1046,0.0802,0.0693,0.0679,0.0721,0.0664,0.0711,0.0719,0.0724,0.0729,0.0727,0.0684,0.0684,0.0744,0.0745,0.0745]}],[{"header":{"parameterUnit":"m.s-1","parameterCategory":2,"la1":30.2991,"la2":30.254,"lo1":-89.0895,"lo2":-89.0444,"dy":0.0017,"dx":0.0017,"nx":28,"ny":28,"refTime":"2025-07-22T21:00:00:Z","depth":"2","parameterNumber":2,"parameterNumberName":"U-component_of_CURRENTS"},"data":[0,0,0,0,0,0,0,0,0,0,0,0,0,0,0,0,0,0,0,0,0,0,0,0,0,0,0,0,0,0,0,0,0,0,0,0,0,0,0,0,0,0,0,0,0,0,0,0,0,0,0,0,0,0,0,0,0,0,0.136,0.1361,0,0.1396,0.1397,0.1397,0.1413,0.1413,0.1413,0.1413,0.1431,0.1432,0.1432,0,0,0,0,0,0,0,0,0,0,0,0,0,0.1364,0.1364,0.136,0.1361,0.1361,0.1396,0.1397,0.1397,0.1413,0.1413,0.1413,0.1413,0.1431,0.1432,0.1432,0,0,0,0,0,0,0,0,0,0,0,0,0,0.1378,0.1364,0.136,0.1373,0.1375,0.1396,0.1397,0.1397,0.1413,0.1413,0.1413,0.1413,0.1431,0.1431,0.1432,0.1438,0,0,0.1435,0.1435,0,0,0,0,0,0,0,0,0.1377,0.1377,0.1371,0.1373,0.1374,0.14,0.1405,0.141,0.1413,0.1399,0.1413,0.1413,0.1419,0.1421,0.1428,0.1439,0.144,0.1435,0.1435,0.1435,0.1436,0,0,0,0,0,0,0,0.1376,0.1376,0.1375,0.1372,0.1374,0.1398,0.1399,0.1406,0.1409,0.14,0.1401,0.1405,0.142,0.1427,0.1429,0.144,0.1435,0.1435,0.1436,0.1436,0.1514,0.1515,0,0,0,0,0,0,0.1368,0.1375,0.1373,0.1376,0.1375,0.1398,0.1399,0.1392,0.1409,0.1412,0.1405,0.1406,0.1426,0.1428,0.1429,0.1474,0.1435,0.1436,0.1437,0.1512,0.1514,0.1516,0,0,0,0,0,0,0.1368,0.1367,0.1372,0.1377,0.1379,0.1397,0.1389,0.1393,0.1412,0.1413,0.1415,0.1422,0.1426,0.1428,0.1445,0.1473,0.1437,0.1437,0.151,0.1513,0.1515,0.154,0,0,0,0,0,0,0.1368,0.1367,0.1369,0.1376,0.1379,0.139,0.139,0.1393,0.1414,0.1415,0.1428,0.1429,0.1426,0.1444,0.1446,0.1474,0.1438,0.1508,0.1512,0.1514,0.1537,0.1543,0.1548,0,0,0,0,0,0.1368,0.1375,0.1369,0.137,0.1378,0.1391,0.1395,0.1408,0.1415,0.1425,0.1434,0.1429,0.1465,0.1445,0.1447,0.1476,0.1507,0.1511,0.1514,0.1535,0.1542,0.1548,0,0,0,0,0,0,0.1385,0.1377,0.1371,0.1377,0.1383,0.1393,0.1412,0.1416,0.1433,0.1438,0.1439,0.1441,0.1475,0.1472,0.145,0.1511,0.149,0.1494,0.1506,0.1512,0.1517,0.1597,0.1438,0,0,0,0,0,0.1386,0.1384,0.1383,0.1388,0.1395,0.1405,0.1416,0.1419,0.1431,0.1439,0.1453,0.147,0.1491,0.1496,0.1516,0.1535,0.1537,0.1561,0.1566,0.157,0.1639,0.1652,0.1665,0.1528,0.1528,0.1528,0,0,0.1392,0.139,0.1388,0.1391,0.1401,0.1418,0.1412,0.143,0.1438,0.1438,0.1469,0.1492,0.1504,0.1535,0.155,0.1532,0.1595,0.1575,0.1578,0.1646,0.1657,0.1671,0.1683,0.153,0.153,0.153,0,0,0.1404,0.1404,0.1407,0.1416,0.1427,0.1437,0.1444,0.1462,0.1465,0.1491,0.1501,0.1563,0.1566,0.1606,0.1618,0.1672,0.163,0.165,0.1733,0.1742,0.1754,0.1765,0.1714,0.172,0.1644,0.1644,0.1644,0,0.1411,0.1411,0.1413,0.1424,0.1431,0.1448,0.1456,0.147,0.149,0.1515,0.1507,0.1611,0.1623,0.169,0.1719,0.1691,0.1655,0.1696,0.1749,0.176,0.1771,0.1717,0.1724,0.1646,0.1645,0.1645,0.1645,0,0.1422,0.143,0.1441,0.1453,0.1462,0.1477,0.1486,0.1517,0.1536,0.1567,0.1647,0.1687,0.1762,0.1762,0.1762,0.1846,0.1777,0.1754,0.1729,0.1786,0.1724,0.1731,0.1648,0.1647,0.1647,0.1646,0,0,0.1413,0.1438,0.1444,0.1458,0.1473,0.1491,0.1513,0.1554,0.1608,0.1658,0.1739,0.182,0.1881,0.1906,0.1913,0.1946,0.197,0.1889,0.1888,0.1834,0.193,0.1741,0.1728,0.1925,0.1928,0.193,0.183,0,0.1419,0.1437,0.1446,0.1484,0.1493,0.152,0.1547,0.1592,0.164,0.1733,0.1812,0.1896,0.1909,0.1956,0.2002,0.2001,0.2,0.1997,0.1893,0.1891,0.1712,0.1737,0.1639,0.1531,0.1836,0.1837,0.1838,0,0.1423,0.1432,0.1447,0.1496,0.1507,0.1544,0.1615,0.1639,0.1756,0.1796,0.1918,0.198,0.2097,0.2077,0.2121,0.2101,0.2044,0.2022,0.2015,0.1861,0.1717,0.154,0.1531,0.1848,0.1847,0.1846,0.1846,0,0.1404,0.1444,0.1456,0.1468,0.1522,0.1554,0.1594,0.1679,0.1696,0.1855,0.1902,0.2053,0.2091,0.2124,0.2087,0.2103,0.2074,0.2071,0.1838,0.182,0.174,0.171,0.2087,0.2087,0.2087,0.2087,0.2088,0,0.1398,0.142,0.1465,0.1479,0.1523,0.1558,0.1625,0.1688,0.1769,0.1826,0.1944,0.1994,0.2101,0.2091,0.2092,0.1961,0.2056,0.1883,0.1805,0.1733,0.1705,0.2007,0.1999,0.2084,0.2084,0.2085,0.2086,0,0.1379,0.1398,0.1429,0.1492,0.1512,0.1548,0.1599,0.166,0.1717,0.1791,0.1835,0.1924,0.1915,0.1934,0.1941,0.1889,0.1838,0.174,0.1615,0.1525,0.1583,0.1578,0.1542,0.1535,0.1529,0.1524,0.152,0,0.1366,0.1376,0.1433,0.1447,0.1482,0.1529,0.1566,0.163,0.1678,0.1736,0.1776,0.1769,0.1762,0.1654,0.16,0.1511,0.1601,0.1321,0.1378,0.1611,0.1539,0.1543,0.1546,0.1255,0.1249,0.1244,0.124,0,0.1348,0.1376,0.1406,0.1426,0.1469,0.1491,0.1551,0.1552,0.1633,0.1642,0.1632,0.1615,0.1518,0.1391,0.1229,0.1183,0.1358,0.1211,0.1508,0.1388,0.1327,0.1259,0.1275,0.1196,0.1201,0.1204,0.1206,0.1208,0.1346,0.1354,0.139,0.1405,0.1434,0.1431,0.1422,0.1466,0.1447,0.143,0.147,0.1369,0.1338,0.1049,0.095,0.0864,0.0982,0.0965,0.0988,0.1014,0.0979,0.0909,0.0691,0.0692,0.0693,0.0694,0.0695,0,0.1331,0.1338,0.1358,0.1357,0.1348,0.1391,0.1395,0.1348,0.1284,0.1281,0.1221,0.1021,0.087,0.0825,0.0633,0.0564,0.0638,0.0525,0.0667,0.0708,0.0745,0.0706,0.034,0.0339,0.0338,0.0337,0,0,0.1321,0.1312,0.1305,0.1256,0.1262,0.1215,0.1191,0.1122,0.1081,0.0948,0.0873,0.0878,0.0842,0.0626,0.0547,0.043,0.0583,0.0389,0.0677,0.0892,0.0929,0.0991,0.0972,0,0,0,0,0]},{"header":{"parameterUnit":"m.s-1","parameterCategory":2,"la1":30.2991,"la2":30.254,"lo1":-89.0895,"lo2":-89.0444,"dy":0.0017,"dx":0.0017,"nx":28,"ny":28,"refTime":"2025-07-22T21:00:00:Z","depth":"2","parameterNumber":3,"parameterNumberName":"V-component_of_CURRENTS"},"data":[0,0,0,0,0,0,0,0,0,0,0,0,0,0,0,0,0,0,0,0,0,0,0,0,0,0,0,0,0,0,0,0,0,0,0,0,0,0,0,0,0,0,0,0,0,0,0,0,0,0,0,0,0,0,0,0,0,0,0.0107,0.0107,0,0.0129,0.0129,0.0129,0.0134,0.0134,0.0134,0.0134,0.0154,0.0155,0.0156,0,0,0,0,0,0,0,0,0,0,0,0,0,0.007,0.0071,0.0106,0.0107,0.0107,0.0129,0.0129,0.0129,0.0134,0.0134,0.0134,0.0134,0.0154,0.0155,0.0156,0,0,0,0,0,0,0,0,0,0,0,0,0,0.0088,0.0071,0.0106,0.0112,0.0113,0.0128,0.0129,0.0129,0.0134,0.0134,0.0134,0.0133,0.0154,0.0155,0.0156,0.0166,0,0,0.0159,0.0159,0,0,0,0,0,0,0,0,0.0087,0.0089,0.0111,0.0112,0.0113,0.0129,0.0124,0.0141,0.0134,0.0126,0.0134,0.0133,0.0146,0.0148,0.0152,0.0167,0.0167,0.0159,0.016,0.016,0.016,0,0,0,0,0,0,0,0.0086,0.0088,0.0115,0.0112,0.0113,0.0115,0.0117,0.0127,0.0136,0.0126,0.0127,0.013,0.0146,0.0151,0.0152,0.0168,0.0159,0.016,0.016,0.0161,0.0199,0.0199,0,0,0,0,0,0,0.0084,0.0087,0.0114,0.0116,0.01,0.0115,0.0118,0.0123,0.0136,0.0138,0.013,0.013,0.0149,0.0151,0.0153,0.0174,0.016,0.0161,0.0162,0.0199,0.0199,0.02,0,0,0,0,0,0,0.0083,0.0086,0.0113,0.0102,0.0106,0.0116,0.0122,0.0124,0.0129,0.0139,0.0141,0.0134,0.0149,0.0152,0.0163,0.0174,0.0161,0.0162,0.0198,0.0199,0.0199,0.021,0,0,0,0,0,0,0.0082,0.0086,0.009,0.0102,0.0106,0.0127,0.0123,0.0125,0.0132,0.0132,0.0143,0.0145,0.0149,0.0162,0.0164,0.0176,0.0163,0.0198,0.0198,0.0199,0.021,0.0211,0.0213,0,0,0,0,0,0.0081,0.009,0.009,0.0093,0.0111,0.0127,0.013,0.0136,0.0132,0.0139,0.0143,0.0144,0.0169,0.0163,0.0166,0.0178,0.0197,0.0198,0.0199,0.0209,0.0211,0.0213,0,0,0,0,0,0,0.0076,0.0092,0.0092,0.0105,0.0116,0.0128,0.0136,0.0137,0.0146,0.0145,0.0149,0.0152,0.0167,0.017,0.0164,0.0191,0.0184,0.0185,0.019,0.0192,0.0194,0.0223,0.0164,0,0,0,0,0,0.0077,0.0089,0.0101,0.0111,0.0117,0.0125,0.0132,0.0136,0.0145,0.0148,0.0156,0.0164,0.0174,0.018,0.019,0.0204,0.022,0.0214,0.0216,0.0217,0.0243,0.029,0.0299,0.0203,0.0203,0.0203,0,0,0.0078,0.0088,0.0094,0.0111,0.0119,0.0136,0.0129,0.0142,0.0156,0.0149,0.017,0.0171,0.0178,0.0195,0.0202,0.0199,0.0242,0.0218,0.0219,0.0245,0.0293,0.0302,0.0311,0.0203,0.0203,0.0203,0,0,0.009,0.0094,0.011,0.0122,0.0136,0.0143,0.0147,0.016,0.0167,0.0182,0.0181,0.0195,0.0204,0.022,0.0226,0.0245,0.0249,0.0238,0.0272,0.0317,0.0326,0.0335,0.0322,0.0329,0.0239,0.0239,0.0239,0,0.009,0.0112,0.0116,0.0136,0.0149,0.0147,0.0168,0.0176,0.0191,0.0207,0.0191,0.0232,0.0224,0.0266,0.0261,0.0252,0.026,0.0261,0.0321,0.033,0.0338,0.0324,0.0332,0.024,0.024,0.024,0.0239,0,0.0116,0.0134,0.0144,0.0169,0.0182,0.0199,0.021,0.0223,0.0224,0.0239,0.0277,0.0278,0.0311,0.0297,0.0279,0.0333,0.031,0.0317,0.0318,0.0349,0.033,0.0338,0.0241,0.024,0.024,0.024,0,0,0.012,0.0155,0.016,0.018,0.0201,0.0218,0.024,0.0271,0.0308,0.0313,0.0372,0.0366,0.0379,0.0388,0.0378,0.0403,0.0429,0.038,0.0382,0.037,0.0492,0.0442,0.0446,0.0451,0.0453,0.0455,0.0439,0,0.014,0.0182,0.0194,0.0235,0.0258,0.0268,0.0298,0.0324,0.0348,0.0404,0.0415,0.0461,0.0411,0.0433,0.0452,0.0453,0.0459,0.0431,0.0463,0.0463,0.042,0.0458,0.0443,0.0427,0.0447,0.0448,0.0449,0,0.0163,0.0191,0.0232,0.0281,0.0293,0.0315,0.0374,0.0403,0.0467,0.0491,0.0543,0.0562,0.0601,0.0559,0.0582,0.0568,0.0531,0.0516,0.0516,0.0484,0.0431,0.0409,0.0441,0.0462,0.0461,0.046,0.0459,0,0.017,0.0219,0.0253,0.0269,0.0321,0.0344,0.0371,0.043,0.0479,0.056,0.0611,0.0665,0.0697,0.0696,0.0638,0.0625,0.0655,0.0637,0.0552,0.0545,0.0549,0.054,0.0658,0.0658,0.0658,0.0659,0.0659,0,0.019,0.022,0.0261,0.0283,0.034,0.0363,0.0438,0.0474,0.0559,0.0639,0.0663,0.0732,0.0737,0.0746,0.069,0.0641,0.0695,0.0574,0.0559,0.0544,0.0535,0.059,0.0582,0.0658,0.0658,0.0658,0.0658,0,0.0197,0.022,0.0269,0.0324,0.0345,0.0385,0.0472,0.0537,0.0596,0.0708,0.074,0.0798,0.0798,0.0767,0.0756,0.0698,0.0662,0.0618,0.0566,0.0546,0.0501,0.0494,0.0551,0.055,0.0549,0.0548,0.0547,0,0.0205,0.023,0.0296,0.0333,0.0359,0.0424,0.048,0.0551,0.063,0.0743,0.0805,0.0833,0.0851,0.0795,0.0714,0.0624,0.0616,0.0543,0.0525,0.0522,0.0501,0.0495,0.049,0.0509,0.0508,0.0507,0.0507,0,0.0229,0.0248,0.029,0.0362,0.0419,0.0498,0.0581,0.0649,0.0746,0.0816,0.0898,0.0913,0.0852,0.077,0.064,0.0576,0.0566,0.052,0.0579,0.0533,0.0481,0.046,0.0457,0.0499,0.05,0.05,0.0501,0.0501,0.0248,0.0278,0.0331,0.0401,0.0472,0.0566,0.0631,0.0721,0.0821,0.0925,0.0936,0.0928,0.0852,0.0667,0.0572,0.0472,0.0487,0.0449,0.0454,0.0459,0.0452,0.04,0.0398,0.0398,0.0398,0.0399,0.0399,0,0.0275,0.0311,0.0372,0.0457,0.0533,0.057,0.07,0.0762,0.0859,0.092,0.0954,0.0839,0.0738,0.0636,0.0479,0.0395,0.0399,0.0363,0.0394,0.0401,0.0408,0.0401,0.0333,0.0332,0.0332,0.0332,0,0,0.0291,0.0345,0.0374,0.0493,0.0555,0.0655,0.0725,0.0812,0.0872,0.0905,0.0887,0.0869,0.0751,0.0623,0.0511,0.0424,0.0432,0.04,0.046,0.0518,0.0526,0.0462,0.0459,0,0,0,0,0]}],[{"header":{"parameterUnit":"m.s-1","parameterCategory":2,"la1":30.2991,"la2":30.254,"lo1":-89.0895,"lo2":-89.0444,"dy":0.0017,"dx":0.0017,"nx":28,"ny":28,"refTime":"2025-07-22T21:00:00:Z","depth":"4","parameterNumber":2,"parameterNumberName":"U-component_of_CURRENTS"},"data":[0,0,0,0,0,0,0,0,0,0,0,0,0,0,0,0,0,0,0,0,0,0,0,0,0,0,0,0,0,0,0,0,0,0,0,0,0,0,0,0,0,0,0,0,0,0,0,0,0,0,0,0,0,0,0,0,0,0,0.0543,0.0543,0,0.0533,0.0532,0.0531,0.0543,0.0544,0.0545,0.0546,0.0533,0.0532,0.0531,0,0,0,0,0,0,0,0,0,0,0,0,0,0.0556,0.0556,0.0543,0.0543,0.0544,0.0533,0.0532,0.0531,0.0543,0.0544,0.0546,0.0547,0.0534,0.0532,0.0531,0,0,0,0,0,0,0,0,0,0,0,0,0,0.0543,0.0555,0.0543,0.0552,0.0554,0.0533,0.0532,0.0531,0.0543,0.0544,0.0546,0.0547,0.0534,0.0532,0.0531,0.049,0,0,0.0525,0.0524,0,0,0,0,0,0,0,0,0.0544,0.0542,0.0551,0.0552,0.0553,0.0546,0.0532,0.0519,0.0543,0.0541,0.0546,0.0548,0.054,0.0538,0.0524,0.049,0.0489,0.0525,0.0524,0.0523,0.0522,0,0,0,0,0,0,0,0.0545,0.0543,0.0533,0.0551,0.0553,0.0552,0.0551,0.0529,0.0528,0.0541,0.0543,0.0551,0.054,0.0526,0.0524,0.0489,0.0525,0.0523,0.0522,0.0521,0.0509,0.0509,0,0,0,0,0,0,0.0557,0.0543,0.0533,0.0533,0.0558,0.0551,0.055,0.0542,0.0528,0.0529,0.055,0.0552,0.0529,0.0527,0.0524,0.0528,0.0523,0.0521,0.052,0.0508,0.0509,0.051,0,0,0,0,0,0,0.0557,0.0555,0.0534,0.0544,0.0542,0.055,0.054,0.0541,0.0557,0.0536,0.0536,0.0569,0.053,0.0527,0.0533,0.0526,0.052,0.0519,0.0507,0.0508,0.0509,0.0501,0,0,0,0,0,0,0.0557,0.0554,0.0557,0.0544,0.0542,0.0536,0.054,0.054,0.056,0.0563,0.0552,0.0551,0.0531,0.0536,0.0531,0.0523,0.0517,0.0506,0.0507,0.0509,0.0501,0.0502,0.0503,0,0,0,0,0,0.0557,0.0555,0.0557,0.0557,0.0543,0.0536,0.0534,0.0542,0.056,0.0562,0.0566,0.0552,0.0542,0.0535,0.0529,0.052,0.0505,0.0507,0.0509,0.05,0.0502,0.0503,0,0,0,0,0,0,0.0566,0.0556,0.0558,0.0554,0.0554,0.0541,0.055,0.0557,0.0559,0.0569,0.0556,0.0554,0.0558,0.0548,0.0541,0.0526,0.0523,0.0524,0.0519,0.052,0.0522,0.0514,0.0516,0,0,0,0,0,0.0568,0.0562,0.0556,0.0556,0.056,0.056,0.0563,0.0565,0.0566,0.057,0.0564,0.0562,0.0554,0.0548,0.0539,0.0523,0.0549,0.0519,0.052,0.0521,0.0515,0.0615,0.0625,0.0515,0.0515,0.0515,0,0,0.0573,0.0568,0.0566,0.0558,0.056,0.0554,0.0565,0.0573,0.0561,0.0566,0.056,0.0568,0.0556,0.0542,0.0542,0.0535,0.0554,0.0524,0.0524,0.0517,0.0618,0.0629,0.0638,0.0516,0.0516,0.0516,0,0,0.0575,0.0577,0.0572,0.057,0.0576,0.0568,0.0579,0.0576,0.0571,0.0573,0.0572,0.0586,0.0573,0.0553,0.0545,0.0551,0.0566,0.0552,0.0538,0.0636,0.0646,0.0655,0.0648,0.0657,0.0544,0.0544,0.0544,0,0.0587,0.057,0.0572,0.0568,0.0564,0.0579,0.0569,0.056,0.0559,0.0549,0.058,0.0577,0.0575,0.0544,0.0549,0.0551,0.0588,0.0527,0.0638,0.0648,0.0658,0.065,0.066,0.0544,0.0544,0.0544,0.0544,0,0.0577,0.057,0.0572,0.0562,0.0556,0.0555,0.0542,0.054,0.0556,0.0549,0.055,0.0558,0.0568,0.056,0.0555,0.0594,0.0587,0.0637,0.0633,0.0669,0.0656,0.0667,0.0544,0.0544,0.0544,0.0544,0,0,0.0584,0.0567,0.0569,0.0557,0.055,0.0542,0.0522,0.05,0.0507,0.0511,0.0521,0.0507,0.0544,0.0538,0.0537,0.0594,0.0678,0.0645,0.065,0.0632,0.0837,0.0707,0.0705,0.0776,0.0779,0.0781,0.0781,0,0.0577,0.0561,0.0548,0.0529,0.0517,0.051,0.0499,0.0483,0.0491,0.0509,0.0506,0.0539,0.0523,0.0563,0.061,0.0673,0.0716,0.0669,0.0809,0.081,0.069,0.0718,0.0791,0.0789,0.0792,0.0793,0.0795,0,0.0567,0.0553,0.0536,0.0507,0.0505,0.0507,0.0495,0.0482,0.0492,0.0508,0.0524,0.056,0.0584,0.0633,0.0715,0.0698,0.077,0.0812,0.0816,0.0707,0.0702,0.0761,0.0814,0.0812,0.0811,0.081,0.0809,0,0.056,0.0537,0.0522,0.0515,0.0498,0.0496,0.0496,0.0497,0.05,0.0535,0.0582,0.0599,0.0666,0.0744,0.0805,0.0806,0.092,0.0942,0.0862,0.085,0.097,0.0961,0.1051,0.1051,0.1051,0.1051,0.1051,0,0.0542,0.0526,0.0533,0.0523,0.0523,0.0513,0.0522,0.0525,0.0563,0.0578,0.0609,0.0641,0.0731,0.0791,0.0829,0.0841,0.0948,0.0846,0.086,0.0956,0.0946,0.0973,0.0964,0.1051,0.1051,0.1051,0.1051,0,0.0526,0.0528,0.0514,0.0515,0.0521,0.0531,0.0549,0.0555,0.0603,0.0637,0.067,0.0725,0.0771,0.0802,0.0922,0.0876,0.0907,0.0905,0.093,0.0948,0.0748,0.0739,0.0784,0.0779,0.0776,0.0773,0.077,0,0.0509,0.0505,0.0521,0.0526,0.0534,0.0545,0.055,0.0578,0.0581,0.0661,0.0676,0.0761,0.0774,0.0788,0.0832,0.0832,0.0848,0.0829,0.0829,0.072,0.0731,0.0727,0.0722,0.0765,0.0764,0.0763,0.0762,0,0.0472,0.0501,0.0496,0.0513,0.0527,0.0517,0.0529,0.0548,0.0576,0.064,0.0677,0.0696,0.0725,0.0732,0.0745,0.0756,0.0809,0.0792,0.0799,0.08,0.0698,0.0711,0.0711,0.075,0.0751,0.0753,0.0753,0,0.0461,0.0461,0.0472,0.0483,0.0493,0.0481,0.049,0.0494,0.0516,0.0611,0.062,0.0675,0.0735,0.0694,0.0701,0.0684,0.067,0.0645,0.066,0.0674,0.0632,0.0487,0.0481,0,0,0,0,0,0.0441,0.0429,0.043,0.0435,0.0444,0.045,0.046,0.047,0.0522,0.0535,0.0579,0.0595,0.0595,0.0613,0.0571,0.0615,0.0656,0.0557,0.0632,0.0682,0.0696,0.0654,0,0,0,0,0,0,0.0425,0.0421,0.0412,0.0384,0.0389,0.0382,0.0392,0.043,0.0424,0.0498,0.0504,0.0548,0.0557,0.0637,0.0569,0.0567,0.0591,0.0584,0.058,0.0674,0.0686,0.0698,0.066,0,0,0,0,0]},{"header":{"parameterUnit":"m.s-1","parameterCategory":2,"la1":30.2991,"la2":30.254,"lo1":-89.0895,"lo2":-89.0444,"dy":0.0017,"dx":0.0017,"nx":28,"ny":28,"refTime":"2025-07-22T21:00:00:Z","depth":"4","parameterNumber":3,"parameterNumberName":"V-component_of_CURRENTS"},"data":[0,0,0,0,0,0,0,0,0,0,0,0,0,0,0,0,0,0,0,0,0,0,0,0,0,0,0,0,0,0,0,0,0,0,0,0,0,0,0,0,0,0,0,0,0,0,0,0,0,0,0,0,0,0,0,0,0,0,0.01,0.01,0,0.0127,0.0127,0.0127,0.0145,0.0145,0.0145,0.0145,0.0199,0.02,0.0202,0,0,0,0,0,0,0,0,0,0,0,0,0,0.0066,0.0066,0.01,0.01,0.01,0.0127,0.0127,0.0127,0.0145,0.0145,0.0145,0.0145,0.0199,0.02,0.0202,0,0,0,0,0,0,0,0,0,0,0,0,0,0.0086,0.0067,0.0099,0.0112,0.0113,0.0127,0.0127,0.0128,0.0145,0.0145,0.0145,0.0145,0.0198,0.02,0.0202,0.0213,0,0,0.0208,0.0209,0,0,0,0,0,0,0,0,0.0085,0.0087,0.011,0.0111,0.0112,0.0132,0.0135,0.0157,0.0145,0.0133,0.0145,0.0145,0.0179,0.0183,0.0188,0.0215,0.0218,0.0209,0.021,0.0211,0.0211,0,0,0,0,0,0,0,0.0083,0.0086,0.0111,0.011,0.0112,0.0117,0.012,0.0139,0.0156,0.0134,0.0135,0.0138,0.018,0.0186,0.0189,0.0218,0.0209,0.021,0.0212,0.0213,0.026,0.026,0,0,0,0,0,0,0.0079,0.0085,0.011,0.0111,0.0098,0.0117,0.0121,0.0126,0.0155,0.0159,0.0138,0.0138,0.0182,0.0187,0.0191,0.0224,0.0211,0.0213,0.0214,0.026,0.026,0.026,0,0,0,0,0,0,0.0078,0.0081,0.0109,0.0098,0.0102,0.0118,0.0124,0.0126,0.0136,0.0157,0.0162,0.0144,0.0182,0.0188,0.0213,0.0225,0.0214,0.0216,0.026,0.026,0.026,0.0278,0,0,0,0,0,0,0.0077,0.0081,0.0084,0.0098,0.0102,0.0123,0.0124,0.0127,0.0136,0.0138,0.0165,0.0169,0.0183,0.021,0.0215,0.0228,0.0217,0.026,0.026,0.026,0.0277,0.0278,0.0279,0,0,0,0,0,0.0076,0.0084,0.0084,0.0087,0.0106,0.0123,0.0127,0.0138,0.0137,0.0145,0.0161,0.0169,0.0213,0.0212,0.0218,0.0232,0.026,0.026,0.026,0.0277,0.0278,0.0279,0,0,0,0,0,0,0.0072,0.0087,0.0087,0.0099,0.0111,0.0126,0.0134,0.0139,0.0156,0.0157,0.0175,0.0181,0.0204,0.0213,0.021,0.0243,0.0236,0.0237,0.0246,0.0248,0.0249,0.0248,0.0219,0,0,0,0,0,0.0071,0.0082,0.0094,0.0104,0.0109,0.012,0.0127,0.0134,0.015,0.0158,0.0179,0.0194,0.0208,0.0224,0.0238,0.0262,0.0254,0.0271,0.0272,0.0273,0.0275,0.0274,0.0275,0.026,0.026,0.026,0,0,0.0071,0.0082,0.0087,0.0104,0.0112,0.0133,0.0125,0.0138,0.016,0.0161,0.0199,0.02,0.0213,0.0238,0.0249,0.025,0.0271,0.0273,0.0274,0.0276,0.0274,0.0276,0.0277,0.026,0.026,0.026,0,0,0.0083,0.0087,0.0101,0.0114,0.0128,0.0139,0.0143,0.0161,0.0173,0.0202,0.0203,0.0209,0.0246,0.0252,0.026,0.0274,0.0273,0.028,0.0295,0.0294,0.0295,0.0296,0.0278,0.0278,0.0286,0.0286,0.0286,0,0.0083,0.0105,0.0107,0.0128,0.0143,0.0145,0.0167,0.0182,0.0208,0.022,0.0218,0.024,0.0252,0.0267,0.0275,0.0278,0.0273,0.0291,0.0296,0.0297,0.0298,0.0279,0.0278,0.0287,0.0287,0.0286,0.0286,0,0.0108,0.0127,0.0138,0.0167,0.0182,0.0201,0.0219,0.024,0.025,0.026,0.0273,0.0272,0.0286,0.0285,0.0291,0.0301,0.0292,0.0294,0.0294,0.03,0.028,0.0279,0.0288,0.0288,0.0287,0.0287,0,0,0.0109,0.0148,0.0152,0.0175,0.0204,0.0222,0.0257,0.0287,0.0302,0.0314,0.0327,0.0337,0.0321,0.0327,0.0317,0.0314,0.0313,0.0313,0.0313,0.0298,0.0302,0.0291,0.0288,0.0321,0.0321,0.0321,0.0281,0,0.0131,0.0173,0.0189,0.0237,0.0261,0.028,0.0313,0.0337,0.0345,0.036,0.0344,0.0353,0.0342,0.034,0.0335,0.0318,0.0313,0.0323,0.0295,0.0294,0.0286,0.0288,0.0322,0.028,0.028,0.028,0.028,0,0.0152,0.0181,0.0225,0.0276,0.0288,0.0319,0.0359,0.0387,0.0402,0.0403,0.0395,0.0383,0.0377,0.0362,0.0336,0.0346,0.0331,0.031,0.0308,0.0293,0.0282,0.0274,0.0277,0.0277,0.0278,0.0278,0.0278,0,0.0153,0.0209,0.0246,0.0264,0.0318,0.0347,0.0379,0.0402,0.0429,0.0426,0.0431,0.0409,0.0404,0.0378,0.0351,0.0349,0.0313,0.0304,0.0273,0.0271,0.0285,0.0284,0.0289,0.0289,0.029,0.029,0.029,0,0.0172,0.0205,0.0254,0.0276,0.0327,0.0359,0.0402,0.0422,0.0448,0.0468,0.0452,0.0444,0.0414,0.0393,0.0357,0.0312,0.0323,0.0273,0.0264,0.0291,0.0292,0.0283,0.0283,0.0288,0.0288,0.0289,0.0289,0,0.0171,0.02,0.0249,0.0308,0.0329,0.0366,0.0434,0.0464,0.0479,0.05,0.0507,0.0489,0.045,0.0411,0.0362,0.0327,0.0279,0.0265,0.0289,0.0282,0.0229,0.0231,0.021,0.021,0.0209,0.0209,0.0208,0,0.0175,0.02,0.0264,0.0294,0.0326,0.0384,0.0426,0.0473,0.0498,0.0517,0.0522,0.0505,0.048,0.0394,0.0348,0.0273,0.0267,0.0241,0.0237,0.023,0.0223,0.0225,0.0227,0.0207,0.0207,0.0207,0.0207,0,0.0186,0.0206,0.0243,0.0298,0.0349,0.0408,0.0464,0.049,0.0534,0.0549,0.0535,0.0498,0.045,0.0381,0.0339,0.0282,0.0252,0.0235,0.0235,0.0232,0.0226,0.0221,0.0223,0.0205,0.0206,0.0206,0.0206,0,0.0191,0.0211,0.0252,0.0306,0.0363,0.0417,0.0452,0.049,0.0525,0.0548,0.0535,0.0488,0.0468,0.0385,0.0336,0.029,0.0266,0.0245,0.0244,0.0245,0.027,0.0269,0.0254,0,0,0,0,0,0.0196,0.0217,0.0261,0.032,0.0377,0.0414,0.0471,0.0502,0.0539,0.0532,0.0541,0.0493,0.0418,0.0378,0.0328,0.0315,0.0256,0.0253,0.023,0.0195,0.0197,0.022,0,0,0,0,0,0,0.0197,0.0232,0.0254,0.0321,0.0366,0.0432,0.0472,0.05,0.0495,0.0515,0.0473,0.0469,0.0393,0.0446,0.0322,0.0308,0.0283,0.0223,0.0222,0.0194,0.0196,0.0198,0.0222,0,0,0,0,0]}]]